Date,TemperatureHighF,TemperatureAvgF,TemperatureLowF,DewpointHighF,DewpointAvgF,DewpointLowF,HumidityHigh,HumidityAvg,HumidityLow,PressureMaxIn,PressureMinIn,WindSpeedMaxMPH,WindSpeedAvgMPH,GustSpeedMaxMPH,PrecipitationSumIn
2013-1-1,44,31,17,15,7,-5,45,37,30,29.53,29.32,0,0,0,0.00
2013-1-2,33,19,10,6,-3,-10,45,38,32,29.71,29.50,0,0,0,0.00
2013-1-3,29,14,2,-1,-8,-18,45,36,23,29.74,29.62,0,0,0,0.00
2013-1-4,42,27,13,14,8,-4,57,44,31,29.59,29.41,0,0,0,0.00
2013-1-5,48,32,21,17,10,6,53,41,29,29.85,29.44,0,0,0,0.00
2013-1-6,45,32,23,21,15,8,64,49,33,29.80,29.53,0,0,0,0.00
2013-1-7,49,31,20,25,13,6,67,48,30,29.97,29.56,0,0,0,0.00
2013-1-8,48,33,19,20,15,6,62,47,30,29.94,29.85,0,0,0,0.00
2013-1-9,44,35,23,24,18,13,69,51,34,29.97,29.59,0,0,0,0.00
2013-1-10,57,40,30,21,14,10,50,35,26,30.12,29.65,0,0,0,0.00
2013-1-11,40,33,25,31,18,12,82,54,39,30.12,29.80,0,0,0,0.00
2013-1-12,44,39,36,36,34,31,85,82,74,29.83,29.71,0,0,0,0.00
2013-1-13,52,46,39,45,41,35,89,82,71,29.74,29.59,0,0,0,0.00
2013-1-14,62,51,40,48,34,17,85,57,27,29.83,29.44,0,0,0,0.00
2013-1-15,52,37,31,19,14,12,50,39,28,29.91,29.83,0,0,0,0.00
2013-1-16,34,32,30,28,23,12,82,68,42,29.83,29.41,0,0,0,0.00
2013-1-17,45,34,27,34,20,4,84,58,35,29.68,29.41,0,0,0,0.00
2013-1-18,42,22,16,10,-3,-8,37,32,23,30.03,29.65,0,0,0,0.00
2013-1-19,47,36,20,21,12,-3,50,38,29,29.94,29.47,0,0,0,0.00
2013-1-20,59,40,26,25,15,0,50,36,26,29.50,29.12,0,0,0,0.00
2013-1-21,32,24,18,12,2,-6,65,38,28,29.68,29.38,0,0,0,0.00
2013-1-22,40,20,11,12,0,-12,68,44,29,29.65,29.32,0,0,0,0.00
2013-1-23,30,11,5,1,-14,-21,36,31,27,29.74,29.65,0,0,0,0.00
2013-1-24,26,11,1,-4,-15,-24,34,28,25,29.80,29.65,0,0,0,0.00
2013-1-25,32,17,6,1,-11,-20,48,28,23,29.88,29.65,0,0,0,0.00
2013-1-26,36,17,7,7,-4,-12,56,40,28,29.83,29.59,0,0,0,0.00
2013-1-27,39,20,11,8,-6,-13,38,31,25,30.03,29.83,0,0,0,0.00
2013-1-28,32,24,16,20,6,-7,75,48,30,30.03,29.59,0,0,0,0.00
2013-1-29,34,30,24,27,21,17,78,69,54,29.77,29.59,0,0,0,0.00
2013-1-30,60,47,33,54,41,27,93,80,62,29.74,29.06,0,0,0,0.00
2013-1-31,60,47,29,55,29,4,86,52,28,29.18,28.59,0,0,0,0.00